UAE9008 LIMC-LIRF

Flight info

Callsign UAE9008
Flight time N/A
Altitude 37000
Route ROBAS DCT TINKU DCT XIBIL
Aircraft B77W/H-SDE1E2E3FGHIJ2J3J4J5M1RWXY/LB1D1

Departure

Time 2026-05-07 18:21
Airport Milan Malpensa International Airport (LIMC)

Arrival

Time N/A
Airport Rome–Fiumicino Leonardo da Vinci International Airport (LIRF)
Time Latitude Longitude Altitude Speed Heading
2026-05-07 17:08 45.62563 8.71743 748 ft 0 kts 233°
2026-05-07 17:59 45.62569 8.71755 747 ft 2 kts 233°
2026-05-07 18:00 45.62578 8.71772 747 ft 2 kts 233°
2026-05-07 18:00 45.62584 8.71783 747 ft 1 kts 233°
2026-05-07 18:00 45.62593 8.71800 747 ft 2 kts 223°
2026-05-07 18:00 45.62605 8.71813 746 ft 2 kts 211°
2026-05-07 18:01 45.62619 8.71823 746 ft 2 kts 201°
2026-05-07 18:01 45.62633 8.71829 746 ft 2 kts 191°
2026-05-07 18:01 45.62648 8.71832 746 ft 2 kts 180°
2026-05-07 18:01 45.62662 8.71830 746 ft 1 kts 170°
2026-05-07 18:02 45.62666 8.71829 746 ft 0 kts 168°
2026-05-07 18:04 45.62665 8.71829 746 ft 0 kts 168°
2026-05-07 18:05 45.62659 8.71832 746 ft 1 kts 168°
2026-05-07 18:05 45.62642 8.71836 746 ft 3 kts 169°
2026-05-07 18:05 45.62637 8.71838 746 ft 0 kts 169°
2026-05-07 18:07 45.62636 8.71838 746 ft 0 kts 169°
2026-05-07 18:07 45.62612 8.71845 746 ft 6 kts 169°
2026-05-07 18:08 45.62552 8.71861 745 ft 11 kts 170°
2026-05-07 18:08 45.62458 8.71886 745 ft 15 kts 169°
2026-05-07 18:08 45.62338 8.71919 743 ft 19 kts 168°
2026-05-07 18:08 45.62199 8.71956 740 ft 20 kts 169°
2026-05-07 18:09 45.62058 8.71996 735 ft 21 kts 169°
2026-05-07 18:09 45.61906 8.72037 730 ft 22 kts 169°
2026-05-07 18:09 45.61749 8.72083 726 ft 23 kts 169°
2026-05-07 18:09 45.61613 8.72119 723 ft 17 kts 169°
2026-05-07 18:10 45.61489 8.72155 720 ft 18 kts 168°
2026-05-07 18:10 45.61356 8.72191 714 ft 20 kts 169°
2026-05-07 18:10 45.61206 8.72233 707 ft 22 kts 169°
2026-05-07 18:10 45.61045 8.72276 702 ft 23 kts 170°
2026-05-07 18:11 45.60901 8.72315 698 ft 17 kts 169°
2026-05-07 18:11 45.60779 8.72347 697 ft 17 kts 169°
2026-05-07 18:11 45.60671 8.72405 697 ft 16 kts 136°
2026-05-07 18:11 45.60639 8.72534 697 ft 10 kts 96°
2026-05-07 18:12 45.60630 8.72643 697 ft 12 kts 97°
2026-05-07 18:12 45.60620 8.72776 698 ft 14 kts 96°
2026-05-07 18:12 45.60610 8.72921 697 ft 14 kts 95°
2026-05-07 18:12 45.60600 8.73070 696 ft 15 kts 96°
2026-05-07 18:13 45.60590 8.73201 697 ft 3 kts 86°
2026-05-07 18:13 45.60605 8.73228 696 ft 4 kts 43°
2026-05-07 18:13 45.60638 8.73270 695 ft 7 kts 34°
2026-05-07 18:13 45.60692 8.73307 694 ft 9 kts 24°
2026-05-07 18:14 45.60759 8.73341 692 ft 11 kts 14°
2026-05-07 18:14 45.60835 8.73383 691 ft 12 kts 22°
2026-05-07 18:14 45.60915 8.73402 691 ft 10 kts 352°
2026-05-07 18:14 45.60990 8.73381 691 ft 11 kts 348°
2026-05-07 18:15 45.61063 8.73359 692 ft 9 kts 348°
2026-05-07 18:15 45.61124 8.73342 693 ft 8 kts 349°
2026-05-07 18:15 45.61179 8.73327 694 ft 7 kts 349°
2026-05-07 18:15 45.61226 8.73314 695 ft 6 kts 349°
2026-05-07 18:16 45.61267 8.73304 696 ft 5 kts 350°
2026-05-07 18:16 45.61303 8.73295 697 ft 4 kts 350°
2026-05-07 18:16 45.61332 8.73287 697 ft 3 kts 350°
2026-05-07 18:16 45.61353 8.73282 698 ft 2 kts 350°
2026-05-07 18:17 45.61369 8.73278 698 ft 1 kts 349°
2026-05-07 18:17 45.61379 8.73275 699 ft 1 kts 349°
2026-05-07 18:17 45.61385 8.73274 699 ft 0 kts 349°
2026-05-07 18:17 45.61391 8.73272 699 ft 2 kts 349°
2026-05-07 18:18 45.61433 8.73260 700 ft 9 kts 348°
2026-05-07 18:18 45.61515 8.73236 703 ft 11 kts 349°
2026-05-07 18:18 45.61589 8.73218 704 ft 8 kts
2026-05-07 18:18 45.61633 8.73282 704 ft 9 kts 64°
2026-05-07 18:19 45.61639 8.73378 703 ft 10 kts 92°
2026-05-07 18:19 45.61615 8.73474 703 ft 10 kts 120°
2026-05-07 18:19 45.61594 8.73560 702 ft 0 kts 103°
2026-05-07 18:20 45.61593 8.73561 702 ft 0 kts 103°
2026-05-07 18:20 45.61590 8.73588 702 ft 7 kts 98°
2026-05-07 18:20 45.61617 8.73703 703 ft 16 kts 51°
2026-05-07 18:20 45.61662 8.73720 705 ft 12 kts 356°
2026-05-07 18:21 45.61999 8.73632 713 ft 101 kts 349°
2026-05-07 18:21 45.63028 8.73344 900 ft 187 kts 349°
2026-05-07 18:21 45.64376 8.73234 1899 ft 211 kts
2026-05-07 18:21 45.65772 8.73092 3547 ft 216 kts 349°
2026-05-07 18:22 45.67338 8.72734 4633 ft 253 kts 355°
2026-05-07 18:22 45.68590 8.72637 4968 ft 296 kts 359°
2026-05-07 18:22 45.71820 8.72578 5036 ft 400 kts
2026-05-07 18:22 45.74593 8.73031 5011 ft 384 kts 12°
2026-05-07 18:23 45.77014 8.74185 4996 ft 359 kts 29°
2026-05-07 18:23 45.78802 8.76481 4842 ft 341 kts 55°
2026-05-07 18:23 45.79724 8.79528 4873 ft 318 kts 78°
2026-05-07 18:23 45.79747 8.82543 4980 ft 301 kts 101°
2026-05-07 18:24 45.78909 8.85300 4995 ft 296 kts 126°
2026-05-07 18:24 45.77411 8.87184 4993 ft 281 kts 152°
2026-05-07 18:24 45.75593 8.87981 5006 ft 266 kts 169°
2026-05-07 18:24 45.73803 8.88407 5010 ft 257 kts 170°
2026-05-07 18:25 45.72098 8.89077 5002 ft 252 kts 152°
2026-05-07 18:25 45.70699 8.90556 5007 ft 250 kts 134°
2026-05-07 18:25 45.69561 8.92443 5008 ft 249 kts 127°
2026-05-07 18:25 45.68531 8.94416 5007 ft 248 kts 125°
2026-05-07 18:26 45.67489 8.96470 5108 ft 262 kts 125°
2026-05-07 18:26 45.66437 8.98541 6173 ft 256 kts 125°
2026-05-07 18:26 45.65406 9.00569 7126 ft 255 kts 125°
2026-05-07 18:26 45.64328 9.02583 7894 ft 261 kts 130°
2026-05-07 18:27 45.63081 9.04580 8432 ft 277 kts 131°
2026-05-07 18:27 45.61765 9.06636 9082 ft 287 kts 131°
2026-05-07 18:27 45.60410 9.08760 9888 ft 292 kts 131°
2026-05-07 18:27 45.59033 9.10924 10515 ft 303 kts 131°
2026-05-07 18:28 45.57580 9.13208 11000 ft 321 kts 132°
2026-05-07 18:28 45.56042 9.15624 11520 ft 338 kts 132°
2026-05-07 18:28 45.54409 9.18186 12081 ft 355 kts 132°
2026-05-07 18:28 45.52700 9.20865 12677 ft 372 kts 132°
2026-05-07 18:29 45.50924 9.23644 13384 ft 386 kts 132°
2026-05-07 18:29 45.49120 9.26467 14297 ft 395 kts 133°
2026-05-07 18:29 45.47244 9.29399 15364 ft 402 kts 133°
2026-05-07 18:29 45.45367 9.32330 16523 ft 407 kts 133°
2026-05-07 18:30 45.43465 9.35296 17572 ft 414 kts 133°
2026-05-07 18:30 45.41496 9.38363 18600 ft 422 kts 133°
2026-05-07 18:30 45.39521 9.41435 19618 ft 429 kts 134°
2026-05-07 18:30 45.37499 9.44578 20628 ft 436 kts 134°
2026-05-07 18:31 45.35452 9.47755 21591 ft 443 kts 134°
2026-05-07 18:31 45.33343 9.51025 22522 ft 451 kts 134°
2026-05-07 18:31 45.31206 9.54334 23413 ft 458 kts 134°
2026-05-07 18:31 45.29045 9.57677 24278 ft 465 kts 135°
2026-05-07 18:32 45.26844 9.61078 25100 ft 471 kts 135°
2026-05-07 18:32 45.24628 9.64496 25853 ft 478 kts 135°
2026-05-07 18:32 45.22351 9.67991 26552 ft 485 kts 138°
2026-05-07 18:32 45.19826 9.71170 27263 ft 486 kts 148°
2026-05-07 18:33 45.16981 9.73755 27954 ft 486 kts 157°
2026-05-07 18:33 45.13926 9.75755 28675 ft 487 kts 162°
2026-05-07 18:33 45.10774 9.77613 29495 ft 490 kts 163°
2026-05-07 18:33 45.07665 9.79429 30485 ft 488 kts 164°
2026-05-07 18:34 45.04535 9.81255 31637 ft 482 kts 164°
2026-05-07 18:34 45.01504 9.83021 32737 ft 476 kts 164°
2026-05-07 18:34 44.98423 9.84811 33641 ft 473 kts 164°
2026-05-07 18:34 44.95419 9.86553 34421 ft 471 kts 164°
2026-05-07 18:35 44.92391 9.88307 35006 ft 470 kts 164°
2026-05-07 18:35 44.89351 9.90066 35580 ft 468 kts 164°
2026-05-07 18:35 44.86373 9.91787 36029 ft 466 kts 164°
2026-05-07 18:35 44.83388 9.93509 36490 ft 465 kts 164°
2026-05-07 18:36 44.80405 9.95228 36919 ft 467 kts 164°
2026-05-07 18:36 44.74387 9.98692 36982 ft 466 kts 164°
2026-05-07 18:37 44.68405 10.02127 36994 ft 465 kts 164°
2026-05-07 18:37 44.62408 10.05563 36983 ft 465 kts 164°
2026-05-07 18:38 44.56422 10.08985 36988 ft 465 kts 164°
2026-05-07 18:38 44.50426 10.12406 36994 ft 465 kts 164°
2026-05-07 18:39 44.44447 10.15810 36988 ft 464 kts 165°
2026-05-07 18:39 44.38463 10.19208 36979 ft 464 kts 165°
2026-05-07 18:40 44.32486 10.22595 36997 ft 464 kts 165°
2026-05-07 18:40 44.26474 10.25994 37002 ft 465 kts 165°
2026-05-07 18:41 44.20492 10.29370 36999 ft 464 kts 165°
2026-05-07 18:41 44.14472 10.32758 36993 ft 464 kts 165°